Wetterdaten: Samstag, 25.05.2013
Datum Zeit Temperatur Luftfeuchte Luftdruck Regen Wind Richtung Richtung Taupunkt Windchill Windben
25.05.2013 00:00 1,3 C 97 % 1012,8 hPa 0,0 l/m 0,0 km/h (0 Bft) S 180 0,9 C 0,7 C 0,0 km/h (0 Bft)
25.05.2013 00:05 1,3 C 97 % 1012,9 hPa 0,0 l/m 0,0 km/h (0 Bft) S 180 0,9 C 0,7 C 0,0 km/h (0 Bft)
25.05.2013 00:10 1,2 C 97 % 1012,9 hPa 0,0 l/m 0,0 km/h (0 Bft) S-SO 157 0,8 C 0,6 C 0,0 km/h (0 Bft)
25.05.2013 00:15 1,2 C 97 % 1012,9 hPa 0,0 l/m 0,0 km/h (0 Bft) SO 135 0,8 C 0,6 C 0,0 km/h (0 Bft)
25.05.2013 00:20 1,2 C 97 % 1012,9 hPa 0,0 l/m 0,0 km/h (0 Bft) SO 135 0,8 C 0,5 C 0,0 km/h (0 Bft)
25.05.2013 00:25 1,2 C 97 % 1012,8 hPa 0,0 l/m 0,0 km/h (0 Bft) SO 135 0,8 C 0,5 C 0,0 km/h (0 Bft)
25.05.2013 00:30 1,2 C 97 % 1012,8 hPa 0,0 l/m 0,0 km/h (0 Bft) O-NO 67 0,8 C 0,6 C 0,0 km/h (0 Bft)
25.05.2013 00:35 1,2 C 97 % 1012,8 hPa 0,0 l/m 0,0 km/h (0 Bft) W-NW 292 0,8 C 0,6 C 0,0 km/h (0 Bft)
25.05.2013 00:40 1,3 C 97 % 1012,8 hPa 0,0 l/m 0,0 km/h (0 Bft) W-NW 292 0,9 C 0,7 C 0,0 km/h (0 Bft)
25.05.2013 00:45 1,3 C 97 % 1012,7 hPa 0,0 l/m 0,0 km/h (0 Bft) N-NW 337 0,9 C 0,8 C 0,0 km/h (0 Bft)
25.05.2013 00:50 1,3 C 97 % 1012,7 hPa 0,0 l/m 0,0 km/h (0 Bft) N-NW 337 0,9 C 0,8 C 0,0 km/h (0 Bft)
25.05.2013 00:55 1,3 C 97 % 1012,7 hPa 0,0 l/m 0,0 km/h (0 Bft) N-NW 337 0,9 C 0,8 C 0,0 km/h (0 Bft)
25.05.2013 01:00 1,4 C 97 % 1012,7 hPa 0,0 l/m 0,0 km/h (0 Bft) N-NO 22 1,0 C 0,8 C 0,0 km/h (0 Bft)
25.05.2013 01:05 1,4 C 97 % 1012,6 hPa 0,0 l/m 0,0 km/h (0 Bft) NO 45 1,0 C 0,9 C 0,0 km/h (0 Bft)
25.05.2013 01:10 1,5 C 97 % 1012,6 hPa 0,0 l/m 0,2 km/h (0 Bft) NO 45 1,1 C 0,9 C 0,0 km/h (0 Bft)
25.05.2013 01:15 1,5 C 97 % 1012,6 hPa 0,0 l/m 0,2 km/h (0 Bft) NO 45 1,1 C 1,0 C 0,0 km/h (0 Bft)
25.05.2013 01:20 1,6 C 97 % 1012,6 hPa 0,0 l/m 0,0 km/h (0 Bft) O-NO 67 1,2 C 1,0 C 0,0 km/h (0 Bft)
25.05.2013 01:25 1,6 C 97 % 1012,6 hPa 0,0 l/m 0,2 km/h (0 Bft) NO 45 1,2 C 1,1 C 1,9 km/h (1 Bft)
25.05.2013 01:30 1,6 C 97 % 1012,6 hPa 0,0 l/m 0,2 km/h (0 Bft) NO 45 1,2 C 1,1 C 0,0 km/h (0 Bft)
25.05.2013 01:35 1,5 C 98 % 1012,6 hPa 0,0 l/m 0,2 km/h (0 Bft) NO 45 1,2 C 1,1 C 0,0 km/h (0 Bft)
25.05.2013 01:40 1,5 C 98 % 1012,6 hPa 0,0 l/m 0,0 km/h (0 Bft) O 90 1,2 C 1,0 C 0,0 km/h (0 Bft)
25.05.2013 01:45 1,5 C 98 % 1012,6 hPa 0,0 l/m 0,2 km/h (0 Bft) O 90 1,2 C 1,0 C 0,0 km/h (0 Bft)
25.05.2013 01:50 1,4 C 97 % 1012,6 hPa 0,0 l/m 0,2 km/h (0 Bft) O 90 1,0 C 0,9 C 0,0 km/h (0 Bft)
25.05.2013 01:55 1,3 C 97 % 1012,6 hPa 0,0 l/m 0,0 km/h (0 Bft) NO 45 0,9 C 0,8 C 0,0 km/h (0 Bft)
25.05.2013 02:00 1,3 C 97 % 1012,6 hPa 0,0 l/m 0,2 km/h (0 Bft) O-NO 67 0,9 C 0,7 C 2,1 km/h (1 Bft)
25.05.2013 02:05 1,2 C 97 % 1012,6 hPa 0,0 l/m 0,6 km/h (0 Bft) NO 45 0,8 C 0,8 C 2,3 km/h (1 Bft)
25.05.2013 02:10 1,2 C 97 % 1012,6 hPa 0,0 l/m 0,6 km/h (0 Bft) NO 45 0,8 C 0,8 C 2,4 km/h (1 Bft)
25.05.2013 02:15 1,2 C 97 % 1012,6 hPa 0,0 l/m 0,3 km/h (0 Bft) NO 45 0,8 C 0,7 C 0,0 km/h (0 Bft)
25.05.2013 02:20 1,1 C 97 % 1012,6 hPa 0,0 l/m 0,2 km/h (0 Bft) NO 45 0,7 C 0,6 C 0,0 km/h (0 Bft)
25.05.2013 02:25 1,1 C 98 % 1012,3 hPa 0,7 l/m 0,2 km/h (0 Bft) NO 45 0,8 C 0,6 C 0,0 km/h (0 Bft)
25.05.2013 02:30 0,9 C 98 % 1012,3 hPa 0,0 l/m 0,0 km/h (0 Bft) NO 45 0,6 C 0,4 C 0,0 km/h (0 Bft)
25.05.2013 02:35 0,8 C 98 % 1012,3 hPa 0,0 l/m 0,0 km/h (0 Bft) O 90 0,5 C 0,3 C 0,0 km/h (0 Bft)
25.05.2013 02:40 0,6 C 98 % 1012,3 hPa 0,0 l/m 0,0 km/h (0 Bft) O 90 0,3 C -0,1 C 0,0 km/h (0 Bft)
25.05.2013 02:45 0,6 C 98 % 1012,1 hPa 0,0 l/m 0,0 km/h (0 Bft) O-NO 67 0,3 C -0,2 C 1,6 km/h (1 Bft)
25.05.2013 02:50 0,4 C 98 % 1012,1 hPa 0,0 l/m 0,0 km/h (0 Bft) NO 45 0,1 C -0,3 C 0,0 km/h (0 Bft)
25.05.2013 02:55 0,4 C 98 % 1012,1 hPa 0,0 l/m 0,0 km/h (0 Bft) O-NO 67 0,1 C -0,4 C 0,0 km/h (0 Bft)
25.05.2013 03:00 0,4 C 98 % 1012,1 hPa 0,0 l/m 0,0 km/h (0 Bft) NO 45 0,1 C -0,5 C 0,0 km/h (0 Bft)
25.05.2013 03:05 0,3 C 98 % 1011,9 hPa 0,0 l/m 0,0 km/h (0 Bft) NO 45 0,0 C -0,6 C 0,0 km/h (0 Bft)
25.05.2013 03:10 0,4 C 98 % 1011,9 hPa 0,0 l/m 0,0 km/h (0 Bft) NO 45 0,1 C -0,5 C 0,0 km/h (0 Bft)
25.05.2013 03:15 0,5 C 98 % 1011,9 hPa 0,0 l/m 0,2 km/h (0 Bft) N 360 0,2 C -0,4 C 0,0 km/h (0 Bft)
25.05.2013 03:20 0,4 C 98 % 1011,9 hPa 0,0 l/m 0,2 km/h (0 Bft) N-NO 22 0,1 C -0,3 C 0,0 km/h (0 Bft)
25.05.2013 03:25 0,4 C 98 % 1011,7 hPa 0,0 l/m 0,0 km/h (0 Bft) O-SO 112 0,1 C -0,3 C 0,0 km/h (0 Bft)
25.05.2013 03:30 0,5 C 98 % 1011,7 hPa 0,0 l/m 0,0 km/h (0 Bft) O-NO 67 0,2 C -0,3 C 0,0 km/h (0 Bft)
25.05.2013 03:35 0,6 C 98 % 1011,7 hPa 0,0 l/m 0,0 km/h (0 Bft) NO 45 0,3 C -0,2 C 0,0 km/h (0 Bft)
25.05.2013 03:40 0,7 C 98 % 1011,7 hPa 0,0 l/m 0,0 km/h (0 Bft) N-NO 22 0,4 C 0,0 C 0,0 km/h (0 Bft)
25.05.2013 03:45 0,7 C 98 % 1011,6 hPa 0,0 l/m 0,0 km/h (0 Bft) N-NO 22 0,4 C 0,0 C 0,0 km/h (0 Bft)
25.05.2013 03:50 0,7 C 98 % 1011,6 hPa 0,0 l/m 0,0 km/h (0 Bft) NO 45 0,4 C 0,0 C 0,0 km/h (0 Bft)
25.05.2013 03:55 0,7 C 98 % 1011,6 hPa 0,0 l/m 0,0 km/h (0 Bft) O-NO 67 0,4 C 0,0 C 0,0 km/h (0 Bft)
25.05.2013 04:00 0,8 C 98 % 1011,6 hPa 0,0 l/m 0,0 km/h (0 Bft) O 90 0,5 C 0,0 C 0,0 km/h (0 Bft)
25.05.2013 04:05 0,7 C 98 % 1011,2 hPa 0,0 l/m 0,0 km/h (0 Bft) NO 45 0,4 C 0,0 C 0,0 km/h (0 Bft)
25.05.2013 04:10 0,7 C 98 % 1011,2 hPa 0,0 l/m 0,0 km/h (0 Bft) N 360 0,4 C -0,1 C 0,0 km/h (0 Bft)
25.05.2013 04:15 0,7 C 98 % 1011,2 hPa 0,0 l/m 0,0 km/h (0 Bft) N 360 0,4 C 0,0 C 0,0 km/h (0 Bft)
25.05.2013 04:20 0,8 C 98 % 1011,2 hPa 0,0 l/m 0,0 km/h (0 Bft) N 360 0,5 C 0,0 C 0,0 km/h (0 Bft)
25.05.2013 04:25 0,7 C 98 % 1011,1 hPa 0,0 l/m 0,0 km/h (0 Bft) N 360 0,4 C 0,1 C 0,0 km/h (0 Bft)
25.05.2013 04:30 0,7 C 98 % 1011,1 hPa 0,0 l/m 0,0 km/h (0 Bft) O-SO 112 0,4 C 0,0 C 0,0 km/h (0 Bft)
25.05.2013 04:35 0,7 C 98 % 1011,1 hPa 0,0 l/m 0,0 km/h (0 Bft) O 90 0,4 C 0,0 C 0,0 km/h (0 Bft)
25.05.2013 04:40 0,7 C 98 % 1011,1 hPa 0,0 l/m 0,0 km/h (0 Bft) NO 45 0,4 C 0,0 C 0,0 km/h (0 Bft)
25.05.2013 04:45 0,8 C 98 % 1010,9 hPa 0,0 l/m 0,0 km/h (0 Bft) O-NO 67 0,5 C 0,1 C 0,0 km/h (0 Bft)
25.05.2013 04:50 0,9 C 98 % 1010,9 hPa 0,0 l/m 0,0 km/h (0 Bft) O 90 0,6 C 0,2 C 0,0 km/h (0 Bft)
25.05.2013 04:55 0,9 C 98 % 1010,9 hPa 0,0 l/m 0,0 km/h (0 Bft) N-NO 22 0,6 C 0,3 C 0,0 km/h (0 Bft)
25.05.2013 05:00 1,0 C 98 % 1010,9 hPa 0,0 l/m 0,0 km/h (0 Bft) N 360 0,7 C 0,5 C 0,0 km/h (0 Bft)
25.05.2013 05:05 1,1 C 98 % 1010,9 hPa 0,0 l/m 0,0 km/h (0 Bft) N-NW 337 0,8 C 0,5 C 0,0 km/h (0 Bft)
25.05.2013 05:10 1,2 C 98 % 1010,9 hPa 0,0 l/m 0,2 km/h (0 Bft) O 90 0,9 C 0,6 C 0,0 km/h (0 Bft)
25.05.2013 05:15 1,2 C 98 % 1010,9 hPa 0,0 l/m 0,2 km/h (0 Bft) N-NO 22 0,9 C 0,7 C 0,0 km/h (0 Bft)
25.05.2013 05:20 1,3 C 98 % 1010,9 hPa 0,0 l/m 0,0 km/h (0 Bft) W-NW 292 1,0 C 0,7 C 0,0 km/h (0 Bft)
25.05.2013 05:25 1,2 C 98 % 1010,9 hPa 0,0 l/m 0,0 km/h (0 Bft) N-NW 337 0,9 C 0,7 C 0,0 km/h (0 Bft)
25.05.2013 05:30 1,2 C 98 % 1010,9 hPa 0,0 l/m 0,0 km/h (0 Bft) N 360 0,9 C 0,7 C 0,0 km/h (0 Bft)
25.05.2013 05:35 1,2 C 98 % 1010,9 hPa 0,0 l/m 0,2 km/h (0 Bft) NO 45 0,9 C 0,7 C 0,0 km/h (0 Bft)
25.05.2013 05:40 1,1 C 98 % 1010,9 hPa 0,0 l/m 0,2 km/h (0 Bft) O 90 0,8 C 0,7 C 0,0 km/h (0 Bft)
25.05.2013 05:45 1,1 C 98 % 1011,0 hPa 0,0 l/m 0,0 km/h (0 Bft) O 90 0,8 C 0,6 C 0,0 km/h (0 Bft)
25.05.2013 05:50 1,0 C 98 % 1011,0 hPa 0,0 l/m 0,0 km/h (0 Bft) O 90 0,7 C 0,5 C 0,0 km/h (0 Bft)
25.05.2013 05:55 1,0 C 98 % 1011,0 hPa 0,0 l/m 0,0 km/h (0 Bft) NO 45 0,7 C 0,5 C 0,0 km/h (0 Bft)
25.05.2013 06:00 1,1 C 98 % 1011,0 hPa 0,0 l/m 0,0 km/h (0 Bft) NO 45 0,8 C 0,5 C 0,0 km/h (0 Bft)
25.05.2013 06:05 1,1 C 98 % 1011,8 hPa 0,0 l/m 0,0 km/h (0 Bft) O 90 0,8 C 0,6 C 0,0 km/h (0 Bft)
25.05.2013 06:10 1,4 C 98 % 1011,8 hPa 0,0 l/m 0,3 km/h (0 Bft) S 180 1,1 C 0,8 C 0,0 km/h (0 Bft)
25.05.2013 06:15 1,5 C 98 % 1011,8 hPa 0,0 l/m 0,3 km/h (0 Bft) S-SW 202 1,2 C 0,8 C 0,0 km/h (0 Bft)
25.05.2013 06:20 1,6 C 98 % 1011,8 hPa 0,0 l/m 0,0 km/h (0 Bft) SO 135 1,3 C 1,0 C 0,0 km/h (0 Bft)
25.05.2013 06:25 1,6 C 98 % 1011,8 hPa 0,0 l/m 0,0 km/h (0 Bft) SO 135 1,3 C 1,1 C 0,0 km/h (0 Bft)
25.05.2013 06:30 1,8 C 98 % 1011,8 hPa 0,0 l/m 0,0 km/h (0 Bft) W-SW 247 1,5 C 1,3 C 0,0 km/h (0 Bft)
25.05.2013 06:35 1,8 C 98 % 1011,8 hPa 0,0 l/m 0,0 km/h (0 Bft) W-SW 247 1,5 C 1,5 C 0,0 km/h (0 Bft)
25.05.2013 06:40 2,2 C 98 % 1011,8 hPa 0,0 l/m 0,0 km/h (0 Bft) W-NW 292 1,9 C 1,7 C 0,0 km/h (0 Bft)
25.05.2013 06:45 2,2 C 98 % 1011,7 hPa 0,0 l/m 0,0 km/h (0 Bft) W-NW 292 1,9 C 1,8 C 0,0 km/h (0 Bft)
25.05.2013 06:50 2,5 C 98 % 1011,7 hPa 0,0 l/m 0,0 km/h (0 Bft) W 270 2,2 C 2,2 C 0,0 km/h (0 Bft)
25.05.2013 06:55 2,8 C 98 % 1011,7 hPa 0,0 l/m 0,0 km/h (0 Bft) W-SW 247 2,5 C 2,4 C 0,0 km/h (0 Bft)
25.05.2013 07:00 3,1 C 97 % 1011,7 hPa 0,0 l/m 0,0 km/h (0 Bft) NO 45 2,7 C 3,1 C 0,0 km/h (0 Bft)
25.05.2013 07:05 3,3 C 97 % 1011,7 hPa 0,0 l/m 0,0 km/h (0 Bft) N 360 2,9 C 3,5 C 0,0 km/h (0 Bft)
25.05.2013 07:10 3,5 C 97 % 1011,7 hPa 0,0 l/m 0,3 km/h (0 Bft) NW 315 3,1 C 4,0 C 2,1 km/h (1 Bft)
25.05.2013 07:15 3,7 C 97 % 1011,7 hPa 0,0 l/m 0,3 km/h (0 Bft) W 270 3,3 C 4,1 C 0,0 km/h (0 Bft)
25.05.2013 07:20 4,3 C 97 % 1011,7 hPa 0,0 l/m 0,8 km/h (0 Bft) SO 135 3,9 C 4,7 C 3,2 km/h (1 Bft)
25.05.2013 07:25 4,1 C 97 % 1011,9 hPa 0,0 l/m 1,1 km/h (1 Bft) W-NW 292 3,7 C 4,9 C 1,8 km/h (1 Bft)
25.05.2013 07:30 4,1 C 97 % 1011,9 hPa 0,0 l/m 0,8 km/h (0 Bft) W-NW 292 3,7 C 5,1 C 2,9 km/h (1 Bft)
25.05.2013 07:35 4,0 C 96 % 1011,9 hPa 0,0 l/m 0,5 km/h (0 Bft) W-NW 292 3,4 C 5,2 C 0,0 km/h (0 Bft)
25.05.2013 07:40 3,8 C 97 % 1011,9 hPa 0,0 l/m 0,5 km/h (0 Bft) W 270 3,4 C 5,1 C 0,0 km/h (0 Bft)
25.05.2013 07:45 3,6 C 97 % 1011,9 hPa 0,0 l/m 0,6 km/h (0 Bft) W-NW 292 3,2 C 5,0 C 2,1 km/h (1 Bft)
25.05.2013 07:50 3,8 C 97 % 1011,9 hPa 0,0 l/m 0,6 km/h (0 Bft) W-NW 292 3,4 C 4,6 C 0,0 km/h (0 Bft)
25.05.2013 07:55 3,9 C 97 % 1011,9 hPa 0,0 l/m 0,5 km/h (0 Bft) W 270 3,5 C 4,7 C 1,8 km/h (1 Bft)
25.05.2013 08:00 4,1 C 96 % 1011,9 hPa 0,0 l/m 0,8 km/h (0 Bft) W-SW 247 3,5 C 5,1 C 5,1 km/h (1 Bft)
25.05.2013 08:05 4,3 C 96 % 1011,8 hPa 0,0 l/m 1,6 km/h (1 Bft) SW 225 3,7 C 5,1 C 0,0 km/h (0 Bft)
25.05.2013 08:10 3,9 C 96 % 1011,8 hPa 0,0 l/m 1,8 km/h (1 Bft) N-NO 22 3,3 C 5,3 C 1,6 km/h (1 Bft)
25.05.2013 08:15 3,9 C 96 % 1011,8 hPa 0,0 l/m 1,8 km/h (1 Bft) N 360 3,3 C 5,3 C 2,4 km/h (1 Bft)
25.05.2013 08:20 3,9 C 96 % 1011,8 hPa 0,0 l/m 1,6 km/h (1 Bft) N-NO 22 3,3 C 5,3 C 0,0 km/h (0 Bft)
25.05.2013 08:25 4,2 C 95 % 1012,0 hPa 0,0 l/m 1,1 km/h (1 Bft) W 270 3,5 C 5,5 C 1,8 km/h (1 Bft)
25.05.2013 08:30 4,3 C 95 % 1012,0 hPa 0,0 l/m 1,3 km/h (1 Bft) W-NW 292 3,6 C 5,8 C 1,9 km/h (1 Bft)
25.05.2013 08:35 4,4 C 95 % 1012,0 hPa 0,0 l/m 1,6 km/h (1 Bft) NW 315 3,7 C 5,8 C 2,6 km/h (1 Bft)
25.05.2013 08:40 4,4 C 94 % 1012,0 hPa 0,0 l/m 1,8 km/h (1 Bft) N-NO 22 3,5 C 5,9 C 3,1 km/h (1 Bft)
25.05.2013 08:45 4,3 C 94 % 1012,0 hPa 0,0 l/m 1,3 km/h (1 Bft) O 90 3,4 C 6,0 C 1,6 km/h (1 Bft)
25.05.2013 08:50 4,3 C 93 % 1012,0 hPa 0,0 l/m 0,6 km/h (0 Bft) NO 45 3,3 C 6,1 C 0,0 km/h (0 Bft)
25.05.2013 08:55 4,3 C 93 % 1012,0 hPa 0,0 l/m 1,0 km/h (0 Bft) NW 315 3,3 C 6,0 C 0,0 km/h (0 Bft)
25.05.2013 09:00 4,2 C 92 % 1012,0 hPa 0,0 l/m 1,8 km/h (1 Bft) W-NW 292 3,0 C 6,0 C 3,2 km/h (1 Bft)
25.05.2013 09:05 4,1 C 92 % 1012,3 hPa 0,0 l/m 2,1 km/h (1 Bft) N-NO 22 2,9 C 5,8 C 3,1 km/h (1 Bft)
25.05.2013 09:10 4,5 C 91 % 1012,3 hPa 0,0 l/m 2,3 km/h (1 Bft) W-NW 292 3,2 C 5,7 C 5,6 km/h (1 Bft)
25.05.2013 09:15 4,6 C 91 % 1012,3 hPa 0,0 l/m 2,1 km/h (1 Bft) W-SW 247 3,3 C 5,9 C 0,0 km/h (0 Bft)
25.05.2013 09:20 5,6 C 89 % 1012,3 hPa 0,0 l/m 1,4 km/h (1 Bft) W-NW 292 3,9 C 7,0 C 0,0 km/h (0 Bft)
25.05.2013 09:25 5,7 C 88 % 1012,1 hPa 0,0 l/m 1,1 km/h (1 Bft) W-SW 247 3,9 C 7,7 C 4,5 km/h (1 Bft)
25.05.2013 09:30 6,1 C 86 % 1012,1 hPa 0,0 l/m 2,1 km/h (1 Bft) N 360 3,9 C 7,8 C 2,3 km/h (1 Bft)
25.05.2013 09:35 6,2 C 85 % 1012,1 hPa 0,0 l/m 2,6 km/h (1 Bft) N-NW 337 3,9 C 8,1 C 3,9 km/h (1 Bft)
25.05.2013 09:40 7,4 C 83 % 1012,1 hPa 0,0 l/m 1,8 km/h (1 Bft) N-NW 337 4,7 C 9,0 C 3,4 km/h (1 Bft)
25.05.2013 09:45 6,8 C 80 % 1012,2 hPa 0,0 l/m 2,7 km/h (1 Bft) N 360 3,6 C 9,3 C 4,0 km/h (1 Bft)
25.05.2013 09:50 6,0 C 78 % 1012,2 hPa 0,0 l/m 3,5 km/h (1 Bft) NW 315 2,5 C 9,0 C 7,4 km/h (2 Bft)
25.05.2013 09:55 5,7 C 81 % 1012,2 hPa 0,0 l/m 2,7 km/h (1 Bft) N 360 2,7 C 8,3 C 4,0 km/h (1 Bft)
25.05.2013 10:00 5,4 C 79 % 1012,2 hPa 0,0 l/m 2,3 km/h (1 Bft) N-NW 337 2,1 C 7,5 C 0,0 km/h (0 Bft)
25.05.2013 10:05 5,5 C 83 % 1012,5 hPa 0,0 l/m 1,6 km/h (1 Bft) NO 45 2,8 C 7,4 C 0,0 km/h (0 Bft)
25.05.2013 10:10 5,5 C 84 % 1012,5 hPa 0,0 l/m 1,6 km/h (1 Bft) N-NW 337 3,0 C 7,5 C 4,7 km/h (1 Bft)
25.05.2013 10:15 5,7 C 85 % 1012,5 hPa 0,0 l/m 2,1 km/h (1 Bft) N 360 3,4 C 7,3 C 2,6 km/h (1 Bft)
25.05.2013 10:20 5,7 C 85 % 1012,5 hPa 0,0 l/m 2,7 km/h (1 Bft) N 360 3,4 C 7,2 C 7,7 km/h (2 Bft)
25.05.2013 10:25 5,7 C 84 % 1012,6 hPa 0,0 l/m 2,4 km/h (1 Bft) N 360 3,2 C 7,2 C 6,1 km/h (2 Bft)
25.05.2013 10:30 5,6 C 85 % 1012,6 hPa 0,0 l/m 2,9 km/h (1 Bft) N 360 3,3 C 7,1 C 6,6 km/h (2 Bft)
25.05.2013 10:35 5,5 C 84 % 1012,6 hPa 0,0 l/m 3,4 km/h (1 Bft) W-NW 292 3,0 C 7,1 C 4,8 km/h (1 Bft)
25.05.2013 10:40 5,6 C 85 % 1012,6 hPa 0,0 l/m 2,7 km/h (1 Bft) N-NW 337 3,3 C 7,0 C 3,4 km/h (1 Bft)
25.05.2013 10:45 5,3 C 84 % 1012,6 hPa 0,0 l/m 2,7 km/h (1 Bft) N-NO 22 2,8 C 6,9 C 4,7 km/h (1 Bft)
25.05.2013 10:50 5,2 C 82 % 1012,6 hPa 0,0 l/m 2,7 km/h (1 Bft) N-NO 22 2,4 C 6,6 C 3,1 km/h (1 Bft)
25.05.2013 10:55 5,4 C 84 % 1012,6 hPa 0,0 l/m 3,1 km/h (1 Bft) N-NW 337 2,9 C 6,6 C 5,5 km/h (1 Bft)
25.05.2013 11:00 5,1 C 85 % 1012,6 hPa 0,0 l/m 3,4 km/h (1 Bft) N-NO 22 2,8 C 6,2 C 2,4 km/h (1 Bft)
25.05.2013 11:05 4,9 C 86 % 1012,8 hPa 0,0 l/m 3,5 km/h (1 Bft) N 360 2,8 C 5,9 C 4,0 km/h (1 Bft)
25.05.2013 11:10 4,3 C 85 % 1012,8 hPa 0,0 l/m 4,2 km/h (1 Bft) NW 315 2,0 C 4,8 C 10,3 km/h (2 Bft)
25.05.2013 11:15 3,4 C 87 % 1012,8 hPa 0,0 l/m 4,5 km/h (1 Bft) N 360 1,4 C 3,8 C 4,2 km/h (1 Bft)
25.05.2013 11:20 3,0 C 88 % 1012,8 hPa 0,0 l/m 3,2 km/h (1 Bft) O-NO 67 1,2 C 3,4 C 2,1 km/h (1 Bft)
25.05.2013 11:25 2,8 C 89 % 1012,8 hPa 0,0 l/m 2,3 km/h (1 Bft) NO 45 1,2 C 3,2 C 2,3 km/h (1 Bft)
25.05.2013 11:30 2,5 C 91 % 1012,8 hPa 0,7 l/m 1,8 km/h (1 Bft) O 90 1,2 C 2,9 C 2,4 km/h (1 Bft)
25.05.2013 11:35 2,6 C 91 % 1012,8 hPa 0,0 l/m 1,3 km/h (1 Bft) NO 45 1,3 C 2,7 C 0,0 km/h (0 Bft)
25.05.2013 11:40 2,8 C 92 % 1012,8 hPa 0,0 l/m 0,6 km/h (0 Bft) O 90 1,6 C 2,9 C 0,0 km/h (0 Bft)
25.05.2013 11:45 3,0 C 91 % 1013,2 hPa 0,7 l/m 0,0 km/h (0 Bft) S-SO 157 1,7 C 3,1 C 0,0 km/h (0 Bft)
25.05.2013 11:50 3,4 C 92 % 1013,2 hPa 0,0 l/m 0,2 km/h (0 Bft) SO 135 2,2 C 3,3 C 1,6 km/h (1 Bft)
25.05.2013 11:55 3,7 C 92 % 1013,2 hPa 0,0 l/m 0,2 km/h (0 Bft) S 180 2,5 C 3,6 C 0,0 km/h (0 Bft)
25.05.2013 12:00 3,9 C 93 % 1013,2 hPa 0,0 l/m 0,0 km/h (0 Bft) O-NO 67 2,9 C 4,1 C 0,0 km/h (0 Bft)
25.05.2013 12:05 4,2 C 93 % 1012,9 hPa 0,0 l/m 0,0 km/h (0 Bft) NO 45 3,2 C 4,4 C 0,0 km/h (0 Bft)
25.05.2013 12:10 4,5 C 93 % 1012,9 hPa 0,0 l/m 0,0 km/h (0 Bft) O-NO 67 3,5 C 5,3 C 0,0 km/h (0 Bft)
25.05.2013 12:15 4,9 C 93 % 1012,9 hPa 0,0 l/m 0,0 km/h (0 Bft) S-SW 202 3,9 C 5,7 C 0,0 km/h (0 Bft)
25.05.2013 12:20 5,4 C 93 % 1012,9 hPa 0,0 l/m 0,5 km/h (0 Bft) S 180 4,4 C 6,4 C 2,9 km/h (1 Bft)
25.05.2013 12:25 5,5 C 93 % 1012,9 hPa 0,0 l/m 0,6 km/h (0 Bft) W-NW 292 4,5 C 6,8 C 0,0 km/h (0 Bft)
25.05.2013 12:30 6,2 C 92 % 1012,9 hPa 0,0 l/m 0,5 km/h (0 Bft) NW 315 5,0 C 7,5 C 0,0 km/h (0 Bft)
25.05.2013 12:35 6,0 C 91 % 1012,9 hPa 0,0 l/m 0,8 km/h (0 Bft) N-NO 22 4,6 C 8,1 C 1,9 km/h (1 Bft)
25.05.2013 12:40 6,8 C 91 % 1012,9 hPa 0,0 l/m 0,6 km/h (0 Bft) W-NW 292 5,4 C 8,7 C 0,0 km/h (0 Bft)
25.05.2013 12:45 6,3 C 90 % 1012,9 hPa 0,0 l/m 0,8 km/h (0 Bft) N 360 4,8 C 9,0 C 2,6 km/h (1 Bft)
25.05.2013 12:50 6,7 C 89 % 1012,9 hPa 0,0 l/m 1,1 km/h (1 Bft) S 180 5,0 C 9,8 C 0,0 km/h (0 Bft)
25.05.2013 12:55 7,0 C 89 % 1012,9 hPa 0,0 l/m 0,6 km/h (0 Bft) N 360 5,3 C 10,2 C 0,0 km/h (0 Bft)
25.05.2013 13:00 6,3 C 85 % 1012,9 hPa 0,0 l/m 0,3 km/h (0 Bft) N-NW 337 4,0 C 10,5 C 2,1 km/h (1 Bft)
25.05.2013 13:05 6,5 C 86 % 1013,0 hPa 0,0 l/m 1,0 km/h (0 Bft) W-NW 292 4,3 C 10,3 C 2,6 km/h (1 Bft)
25.05.2013 13:10 6,6 C 82 % 1013,0 hPa 0,0 l/m 1,3 km/h (1 Bft) NO 45 3,8 C 10,3 C 1,6 km/h (1 Bft)
25.05.2013 13:15 6,8 C 83 % 1013,0 hPa 0,0 l/m 1,6 km/h (1 Bft) N-NW 337 4,1 C 10,5 C 3,4 km/h (1 Bft)
25.05.2013 13:20 6,6 C 83 % 1013,0 hPa 0,0 l/m 2,4 km/h (1 Bft) W-SW 247 3,9 C 10,2 C 2,1 km/h (1 Bft)
25.05.2013 13:25 6,9 C 85 % 1013,1 hPa 0,0 l/m 1,9 km/h (1 Bft) S-SW 202 4,6 C 10,1 C 2,7 km/h (1 Bft)
25.05.2013 13:30 6,7 C 85 % 1013,1 hPa 0,0 l/m 1,0 km/h (0 Bft) N-NW 337 4,4 C 10,2 C 2,4 km/h (1 Bft)
25.05.2013 13:35 6,5 C 85 % 1013,1 hPa 0,0 l/m 0,6 km/h (0 Bft) O 90 4,2 C 10,1 C 0,0 km/h (0 Bft)
25.05.2013 13:40 6,3 C 85 % 1013,1 hPa 0,0 l/m 1,0 km/h (0 Bft) NW 315 4,0 C 9,8 C 3,1 km/h (1 Bft)
25.05.2013 13:45 6,3 C 84 % 1013,2 hPa 0,0 l/m 1,0 km/h (0 Bft) W 270 3,8 C 9,3 C 0,0 km/h (0 Bft)
25.05.2013 13:50 6,7 C 86 % 1013,2 hPa 0,0 l/m 1,0 km/h (0 Bft) W-NW 292 4,5 C 9,2 C 3,7 km/h (1 Bft)
25.05.2013 13:55 6,6 C 86 % 1013,2 hPa 0,0 l/m 1,0 km/h (0 Bft) N-NW 337 4,4 C 9,2 C 3,9 km/h (1 Bft)
25.05.2013 14:00 6,6 C 86 % 1013,2 hPa 0,0 l/m 1,9 km/h (1 Bft) N 360 4,4 C 9,3 C 1,6 km/h (1 Bft)
25.05.2013 14:05 6,7 C 86 % 1013,2 hPa 0,0 l/m 1,8 km/h (1 Bft) N-NW 337 4,5 C 9,2 C 3,5 km/h (1 Bft)
25.05.2013 14:10 6,4 C 83 % 1013,2 hPa 0,0 l/m 1,9 km/h (1 Bft) O-NO 67 3,7 C 9,0 C 0,0 km/h (0 Bft)
25.05.2013 14:15 6,4 C 82 % 1013,2 hPa 0,0 l/m 1,9 km/h (1 Bft) N-NO 22 3,6 C 9,0 C 2,4 km/h (1 Bft)
25.05.2013 14:20 6,4 C 84 % 1013,2 hPa 0,0 l/m 1,6 km/h (1 Bft) W-NW 292 3,9 C 8,7 C 2,4 km/h (1 Bft)
25.05.2013 14:25 6,4 C 86 % 1013,1 hPa 0,0 l/m 1,4 km/h (1 Bft) NW 315 4,2 C 8,5 C 0,0 km/h (0 Bft)
25.05.2013 14:30 6,1 C 84 % 1013,1 hPa 0,0 l/m 1,1 km/h (1 Bft) NO 45 3,6 C 8,6 C 2,7 km/h (1 Bft)
25.05.2013 14:35 5,9 C 83 % 1013,1 hPa 0,0 l/m 1,3 km/h (1 Bft) W-NW 292 3,2 C 8,4 C 2,9 km/h (1 Bft)
25.05.2013 14:40 5,9 C 83 % 1013,1 hPa 0,0 l/m 1,4 km/h (1 Bft) N-NW 337 3,2 C 8,1 C 0,0 km/h (0 Bft)
25.05.2013 14:45 6,2 C 86 % 1012,9 hPa 0,0 l/m 0,6 km/h (0 Bft) N-NW 337 4,0 C 8,2 C 0,0 km/h (0 Bft)
25.05.2013 14:50 6,1 C 87 % 1012,9 hPa 0,0 l/m 0,2 km/h (0 Bft) W-NW 292 4,1 C 8,1 C 0,0 km/h (0 Bft)
25.05.2013 14:55 6,3 C 88 % 1012,9 hPa 0,0 l/m 0,3 km/h (0 Bft) NO 45 4,5 C 8,1 C 2,4 km/h (1 Bft)
25.05.2013 15:00 6,4 C 88 % 1012,9 hPa 0,0 l/m 0,5 km/h (0 Bft) O-SO 112 4,6 C 8,1 C 0,0 km/h (0 Bft)
25.05.2013 15:05 6,5 C 89 % 1012,9 hPa 0,0 l/m 0,5 km/h (0 Bft) N 360 4,8 C 8,4 C 0,0 km/h (0 Bft)
25.05.2013 15:10 6,9 C 89 % 1012,9 hPa 0,0 l/m 0,0 km/h (0 Bft) N-NO 22 5,2 C 8,8 C 0,0 km/h (0 Bft)
25.05.2013 15:15 6,8 C 89 % 1012,9 hPa 0,0 l/m 0,3 km/h (0 Bft) S-SO 157 5,1 C 9,1 C 2,9 km/h (1 Bft)
25.05.2013 15:20 6,9 C 89 % 1012,9 hPa 0,0 l/m 1,0 km/h (0 Bft) W-SW 247 5,2 C 9,1 C 0,0 km/h (0 Bft)
25.05.2013 15:25 6,9 C 89 % 1012,9 hPa 0,0 l/m 1,0 km/h (0 Bft) S-SW 202 5,2 C 9,1 C 0,0 km/h (0 Bft)
25.05.2013 15:30 7,0 C 88 % 1012,9 hPa 0,0 l/m 0,2 km/h (0 Bft) NW 315 5,2 C 9,3 C 0,0 km/h (0 Bft)
25.05.2013 15:35 6,5 C 85 % 1012,9 hPa 0,0 l/m 0,5 km/h (0 Bft) O-NO 67 4,2 C 9,2 C 0,0 km/h (0 Bft)
25.05.2013 15:40 6,6 C 87 % 1012,9 hPa 0,0 l/m 0,8 km/h (0 Bft) NO 45 4,6 C 8,8 C 0,0 km/h (0 Bft)
25.05.2013 15:45 6,5 C 88 % 1013,0 hPa 0,0 l/m 0,8 km/h (0 Bft) N 360 4,7 C 8,6 C 1,6 km/h (1 Bft)
25.05.2013 15:50 6,7 C 89 % 1013,0 hPa 0,0 l/m 0,3 km/h (0 Bft) S 180 5,0 C 8,4 C 0,0 km/h (0 Bft)
25.05.2013 15:55 6,5 C 89 % 1013,0 hPa 0,0 l/m 0,2 km/h (0 Bft) W 270 4,8 C 8,4 C 0,0 km/h (0 Bft)
25.05.2013 16:00 6,3 C 89 % 1013,0 hPa 0,0 l/m 0,0 km/h (0 Bft) O 90 4,6 C 8,2 C 0,0 km/h (0 Bft)
25.05.2013 16:05 6,2 C 89 % 1013,1 hPa 0,0 l/m 0,2 km/h (0 Bft) O-NO 67 4,5 C 8,1 C 0,0 km/h (0 Bft)
25.05.2013 16:10 6,0 C 90 % 1013,1 hPa 0,0 l/m 0,6 km/h (0 Bft) O 90 4,5 C 7,8 C 2,4 km/h (1 Bft)
25.05.2013 16:15 5,7 C 90 % 1013,1 hPa 0,0 l/m 1,1 km/h (1 Bft) N 360 4,2 C 7,5 C 2,3 km/h (1 Bft)
25.05.2013 16:20 5,3 C 90 % 1013,1 hPa 0,0 l/m 2,1 km/h (1 Bft) O-NO 67 3,8 C 6,9 C 2,9 km/h (1 Bft)
25.05.2013 16:25 5,3 C 90 % 1012,9 hPa 0,0 l/m 2,6 km/h (1 Bft) NO 45 3,8 C 6,6 C 2,6 km/h (1 Bft)
25.05.2013 16:30 5,3 C 91 % 1012,9 hPa 0,0 l/m 2,1 km/h (1 Bft) NO 45 4,0 C 6,3 C 1,8 km/h (1 Bft)
25.05.2013 16:35 5,2 C 91 % 1012,9 hPa 0,0 l/m 1,3 km/h (1 Bft) O-NO 67 3,9 C 6,1 C 1,9 km/h (1 Bft)
25.05.2013 16:40 5,1 C 91 % 1012,9 hPa 0,0 l/m 1,0 km/h (0 Bft) NO 45 3,8 C 6,0 C 0,0 km/h (0 Bft)
25.05.2013 16:45 5,2 C 91 % 1012,9 hPa 0,0 l/m 0,6 km/h (0 Bft) O 90 3,9 C 6,0 C 0,0 km/h (0 Bft)
25.05.2013 16:50 5,2 C 92 % 1012,9 hPa 0,0 l/m 0,5 km/h (0 Bft) O 90 4,0 C 6,0 C 2,3 km/h (1 Bft)
25.05.2013 16:55 5,1 C 91 % 1012,9 hPa 0,0 l/m 1,1 km/h (1 Bft) O 90 3,8 C 6,0 C 2,6 km/h (1 Bft)
25.05.2013 17:00 5,1 C 92 % 1012,9 hPa 0,0 l/m 2,3 km/h (1 Bft) NO 45 3,9 C 5,9 C 2,7 km/h (1 Bft)
25.05.2013 17:05 5,1 C 92 % 1013,1 hPa 0,0 l/m 2,3 km/h (1 Bft) NO 45 3,9 C 5,9 C 0,0 km/h (0 Bft)
25.05.2013 17:10 5,6 C 92 % 1013,1 hPa 0,0 l/m 1,0 km/h (0 Bft) O-SO 112 4,4 C 6,0 C 0,0 km/h (0 Bft)
25.05.2013 17:15 5,9 C 93 % 1013,1 hPa 0,0 l/m 0,2 km/h (0 Bft) S-SO 157 4,9 C 6,3 C 0,0 km/h (0 Bft)
25.05.2013 17:20 6,1 C 92 % 1013,1 hPa 0,0 l/m 0,0 km/h (0 Bft) SO 135 4,9 C 6,8 C 0,0 km/h (0 Bft)
25.05.2013 17:25 6,2 C 92 % 1013,2 hPa 0,0 l/m 0,0 km/h (0 Bft) SO 135 5,0 C 7,1 C 0,0 km/h (0 Bft)
25.05.2013 17:30 6,3 C 91 % 1013,2 hPa 0,0 l/m 0,0 km/h (0 Bft) O-SO 112 4,9 C 7,6 C 0,0 km/h (0 Bft)
25.05.2013 17:35 6,3 C 91 % 1013,2 hPa 0,0 l/m 0,0 km/h (0 Bft) S-SW 202 4,9 C 7,8 C 0,0 km/h (0 Bft)
25.05.2013 17:40 6,4 C 91 % 1013,2 hPa 0,0 l/m 0,2 km/h (0 Bft) O 90 5,0 C 8,0 C 0,0 km/h (0 Bft)
25.05.2013 17:45 6,5 C 91 % 1013,2 hPa 0,0 l/m 0,3 km/h (0 Bft) S-SO 157 5,1 C 8,2 C 2,3 km/h (1 Bft)
25.05.2013 17:50 6,6 C 90 % 1013,2 hPa 0,0 l/m 1,0 km/h (0 Bft) S-SO 157 5,1 C 8,0 C 2,4 km/h (1 Bft)
25.05.2013 17:55 6,6 C 90 % 1013,2 hPa 0,0 l/m 1,1 km/h (1 Bft) O-SO 112 5,1 C 7,9 C 0,0 km/h (0 Bft)
25.05.2013 18:00 6,6 C 89 % 1013,2 hPa 0,0 l/m 1,4 km/h (1 Bft) S-SO 157 4,9 C 7,8 C 2,4 km/h (1 Bft)
25.05.2013 18:05 6,7 C 88 % 1013,2 hPa 0,0 l/m 1,0 km/h (0 Bft) S 180 4,9 C 7,7 C 0,0 km/h (0 Bft)
25.05.2013 18:10 6,7 C 89 % 1013,2 hPa 0,0 l/m 1,0 km/h (0 Bft) S 180 5,0 C 7,7 C 1,8 km/h (1 Bft)
25.05.2013 18:15 6,5 C 89 % 1013,2 hPa 0,0 l/m 1,1 km/h (1 Bft) S 180 4,8 C 7,5 C 2,4 km/h (1 Bft)
25.05.2013 18:20 6,4 C 89 % 1013,2 hPa 0,0 l/m 0,6 km/h (0 Bft) W-SW 247 4,7 C 7,5 C 0,0 km/h (0 Bft)
25.05.2013 18:25 6,3 C 89 % 1013,2 hPa 0,0 l/m 0,8 km/h (0 Bft) SO 135 4,6 C 7,4 C 3,4 km/h (1 Bft)
25.05.2013 18:30 6,4 C 89 % 1013,2 hPa 0,0 l/m 1,3 km/h (1 Bft) S-SO 157 4,7 C 7,2 C 2,1 km/h (1 Bft)
25.05.2013 18:35 6,3 C 88 % 1013,2 hPa 0,0 l/m 1,6 km/h (1 Bft) SO 135 4,5 C 7,1 C 3,4 km/h (1 Bft)
25.05.2013 18:40 6,4 C 88 % 1013,2 hPa 0,0 l/m 1,4 km/h (1 Bft) S-SO 157 4,6 C 6,9 C 1,9 km/h (1 Bft)
25.05.2013 18:45 6,4 C 88 % 1013,4 hPa 0,0 l/m 1,3 km/h (1 Bft) S-SO 157 4,6 C 6,9 C 0,0 km/h (0 Bft)
25.05.2013 18:50 6,4 C 88 % 1013,4 hPa 0,0 l/m 0,5 km/h (0 Bft) S 180 4,6 C 6,9 C 0,0 km/h (0 Bft)
25.05.2013 18:55 6,4 C 88 % 1013,4 hPa 0,0 l/m 1,0 km/h (0 Bft) S 180 4,6 C 6,9 C 2,4 km/h (1 Bft)
25.05.2013 19:00 6,4 C 88 % 1013,4 hPa 0,0 l/m 1,8 km/h (1 Bft) W-SW 247 4,6 C 6,8 C 0,0 km/h (0 Bft)
25.05.2013 19:05 6,3 C 88 % 1013,2 hPa 0,0 l/m 1,6 km/h (1 Bft) S 180 4,5 C 6,7 C 0,0 km/h (0 Bft)
25.05.2013 19:10 6,2 C 88 % 1013,2 hPa 0,0 l/m 1,1 km/h (1 Bft) S-SW 202 4,4 C 6,6 C 0,0 km/h (0 Bft)
25.05.2013 19:15 6,2 C 88 % 1013,2 hPa 0,0 l/m 1,4 km/h (1 Bft) S 180 4,4 C 6,6 C 3,1 km/h (1 Bft)
25.05.2013 19:20 6,2 C 88 % 1013,2 hPa 0,0 l/m 2,1 km/h (1 Bft) S 180 4,4 C 6,6 C 2,9 km/h (1 Bft)
25.05.2013 19:25 6,4 C 88 % 1013,4 hPa 0,0 l/m 1,9 km/h (1 Bft) S-SO 157 4,6 C 6,7 C 0,0 km/h (0 Bft)
25.05.2013 19:30 6,6 C 88 % 1013,4 hPa 0,0 l/m 2,4 km/h (1 Bft) S-SW 202 4,8 C 6,9 C 3,2 km/h (1 Bft)
25.05.2013 19:35 6,3 C 85 % 1013,4 hPa 0,0 l/m 3,5 km/h (1 Bft) S 180 4,0 C 6,8 C 3,4 km/h (1 Bft)
25.05.2013 19:40 6,1 C 84 % 1013,4 hPa 0,0 l/m 4,0 km/h (1 Bft) S 180 3,6 C 6,4 C 4,2 km/h (1 Bft)
25.05.2013 19:45 5,9 C 85 % 1013,6 hPa 0,0 l/m 3,7 km/h (1 Bft) S 180 3,6 C 6,4 C 4,5 km/h (1 Bft)
25.05.2013 19:50 5,6 C 83 % 1013,6 hPa 0,0 l/m 4,2 km/h (1 Bft) S 180 2,9 C 5,8 C 6,3 km/h (2 Bft)
25.05.2013 19:55 5,6 C 83 % 1013,6 hPa 0,0 l/m 4,2 km/h (1 Bft) S 180 2,9 C 5,6 C 6,0 km/h (2 Bft)
25.05.2013 20:00 5,4 C 83 % 1013,6 hPa 0,0 l/m 4,2 km/h (1 Bft) S-SO 157 2,7 C 5,3 C 3,9 km/h (1 Bft)
25.05.2013 20:05 5,4 C 84 % 1013,6 hPa 0,0 l/m 3,5 km/h (1 Bft) S-SO 157 2,9 C 5,4 C 0,0 km/h (0 Bft)
25.05.2013 20:10 5,3 C 85 % 1013,6 hPa 0,0 l/m 2,3 km/h (1 Bft) S-SO 157 3,0 C 5,4 C 2,4 km/h (1 Bft)
25.05.2013 20:15 5,2 C 85 % 1013,6 hPa 0,0 l/m 2,1 km/h (1 Bft) S 180 2,9 C 5,3 C 5,0 km/h (1 Bft)
25.05.2013 20:20 5,0 C 85 % 1013,6 hPa 0,0 l/m 2,7 km/h (1 Bft) S-SO 157 2,7 C 5,2 C 5,0 km/h (1 Bft)
25.05.2013 20:25 5,0 C 85 % 1013,6 hPa 0,0 l/m 3,2 km/h (1 Bft) S 180 2,7 C 5,0 C 2,9 km/h (1 Bft)
25.05.2013 20:30 4,9 C 85 % 1013,6 hPa 0,0 l/m 3,9 km/h (1 Bft) S-SO 157 2,6 C 4,6 C 3,1 km/h (1 Bft)
25.05.2013 20:35 4,8 C 85 % 1013,6 hPa 0,0 l/m 4,0 km/h (1 Bft) S-SO 157 2,5 C 4,3 C 5,5 km/h (1 Bft)
25.05.2013 20:40 4,7 C 86 % 1013,6 hPa 0,0 l/m 3,4 km/h (1 Bft) W-SW 247 2,6 C 4,6 C 2,3 km/h (1 Bft)
25.05.2013 20:45 4,7 C 86 % 1013,4 hPa 0,0 l/m 3,7 km/h (1 Bft) S-SW 202 2,6 C 4,2 C 9,7 km/h (2 Bft)
25.05.2013 20:50 4,2 C 86 % 1013,4 hPa 0,0 l/m 5,8 km/h (2 Bft) S 180 2,1 C 2,9 C 11,7 km/h (2 Bft)
25.05.2013 20:55 4,1 C 86 % 1013,4 hPa 0,0 l/m 6,9 km/h (2 Bft) S 180 2,0 C 1,8 C 9,7 km/h (2 Bft)
25.05.2013 21:00 3,9 C 86 % 1013,4 hPa 0,0 l/m 6,8 km/h (2 Bft) S-SO 157 1,8 C 1,7 C 5,5 km/h (1 Bft)
25.05.2013 21:05 3,8 C 87 % 1013,6 hPa 0,0 l/m 6,1 km/h (2 Bft) S 180 1,8 C 2,1 C 6,6 km/h (2 Bft)
25.05.2013 21:10 3,7 C 87 % 1013,6 hPa 0,0 l/m 5,0 km/h (1 Bft) S 180 1,7 C 2,3 C 7,6 km/h (2 Bft)
25.05.2013 21:15 3,6 C 87 % 1013,6 hPa 0,0 l/m 5,1 km/h (1 Bft) SO 135 1,6 C 2,0 C 6,9 km/h (2 Bft)
25.05.2013 21:20 3,3 C 87 % 1013,6 hPa 0,0 l/m 5,1 km/h (1 Bft) NO 45 1,3 C 1,6 C 2,1 km/h (1 Bft)
25.05.2013 21:25 3,2 C 88 % 1013,9 hPa 0,0 l/m 4,8 km/h (1 Bft) SO 135 1,4 C 1,6 C 5,1 km/h (1 Bft)
25.05.2013 21:30 3,0 C 88 % 1013,9 hPa 0,0 l/m 3,5 km/h (1 Bft) S-SO 157 1,2 C 1,9 C 3,2 km/h (1 Bft)
25.05.2013 21:35 2,9 C 89 % 1013,9 hPa 0,0 l/m 3,5 km/h (1 Bft) SO 135 1,3 C 1,8 C 5,3 km/h (1 Bft)
25.05.2013 21:40 2,6 C 89 % 1013,9 hPa 0,0 l/m 3,1 km/h (1 Bft) S-SO 157 1,0 C 1,9 C 2,1 km/h (1 Bft)
25.05.2013 21:45 2,6 C 89 % 1014,1 hPa 0,0 l/m 2,4 km/h (1 Bft) W 270 1,0 C 2,1 C 2,1 km/h (1 Bft)
25.05.2013 21:50 2,5 C 90 % 1014,1 hPa 0,0 l/m 2,1 km/h (1 Bft) S 180 1,0 C 2,0 C 4,8 km/h (1 Bft)
25.05.2013 21:55 2,4 C 91 % 1014,1 hPa 0,0 l/m 2,1 km/h (1 Bft) O-NO 67 1,1 C 2,0 C 0,0 km/h (0 Bft)
25.05.2013 22:00 2,3 C 92 % 1014,1 hPa 0,7 l/m 1,3 km/h (1 Bft) O-SO 112 1,1 C 1,9 C 1,8 km/h (1 Bft)
25.05.2013 22:05 2,3 C 92 % 1014,1 hPa 0,0 l/m 1,0 km/h (0 Bft) O-SO 112 1,1 C 1,9 C 6,3 km/h (2 Bft)
25.05.2013 22:10 2,2 C 93 % 1014,1 hPa 0,0 l/m 1,3 km/h (1 Bft) SO 135 1,2 C 1,9 C 2,6 km/h (1 Bft)
25.05.2013 22:15 2,3 C 93 % 1014,1 hPa 0,0 l/m 1,6 km/h (1 Bft) S-SO 157 1,3 C 1,9 C 2,1 km/h (1 Bft)
25.05.2013 22:20 2,3 C 94 % 1014,1 hPa 0,0 l/m 1,6 km/h (1 Bft) S 180 1,4 C 1,9 C 3,7 km/h (1 Bft)
25.05.2013 22:25 2,3 C 94 % 1014,2 hPa 0,0 l/m 1,4 km/h (1 Bft) S 180 1,4 C 1,9 C 2,7 km/h (1 Bft)
25.05.2013 22:30 2,3 C 94 % 1014,2 hPa 0,0 l/m 1,4 km/h (1 Bft) S 180 1,4 C 1,9 C 2,7 km/h (1 Bft)
25.05.2013 22:35 2,3 C 94 % 1014,2 hPa 0,0 l/m 2,1 km/h (1 Bft) S-SW 202 1,4 C 1,9 C 4,2 km/h (1 Bft)
25.05.2013 22:40 2,3 C 95 % 1014,2 hPa 0,0 l/m 2,6 km/h (1 Bft) S 180 1,6 C 1,9 C 0,0 km/h (0 Bft)
25.05.2013 22:45 2,3 C 95 % 1014,1 hPa 0,0 l/m 2,7 km/h (1 Bft) S-SW 202 1,6 C 1,8 C 4,2 km/h (1 Bft)
25.05.2013 22:50 2,4 C 95 % 1014,1 hPa 0,0 l/m 2,7 km/h (1 Bft) O-SO 112 1,7 C 1,9 C 5,3 km/h (1 Bft)
25.05.2013 22:55 2,4 C 95 % 1014,1 hPa 0,0 l/m 2,7 km/h (1 Bft) S-SO 157 1,7 C 1,9 C 0,0 km/h (0 Bft)
25.05.2013 23:00 2,4 C 95 % 1014,1 hPa 0,0 l/m 2,4 km/h (1 Bft) SO 135 1,7 C 2,0 C 0,0 km/h (0 Bft)
25.05.2013 23:05 2,4 C 95 % 1014,1 hPa 0,7 l/m 2,3 km/h (1 Bft) SO 135 1,7 C 2,0 C 3,9 km/h (1 Bft)
25.05.2013 23:10 2,4 C 95 % 1014,1 hPa 0,0 l/m 1,9 km/h (1 Bft) S-SO 157 1,7 C 2,0 C 2,6 km/h (1 Bft)
25.05.2013 23:15 2,4 C 95 % 1014,1 hPa 0,0 l/m 2,1 km/h (1 Bft) S-SW 202 1,7 C 2,1 C 0,0 km/h (0 Bft)
25.05.2013 23:20 2,4 C 96 % 1014,1 hPa 0,0 l/m 2,1 km/h (1 Bft) S-SO 157 1,8 C 2,1 C 2,9 km/h (1 Bft)
25.05.2013 23:25 2,4 C 96 % 1014,1 hPa 0,0 l/m 1,6 km/h (1 Bft) O 90 1,8 C 2,1 C 2,4 km/h (1 Bft)
25.05.2013 23:30 2,4 C 96 % 1014,1 hPa 0,0 l/m 1,8 km/h (1 Bft) O-SO 112 1,8 C 2,1 C 6,1 km/h (2 Bft)
25.05.2013 23:35 2,5 C 96 % 1014,1 hPa 0,0 l/m 1,4 km/h (1 Bft) N-NO 22 1,9 C 2,1 C 3,5 km/h (1 Bft)
25.05.2013 23:40 2,5 C 96 % 1014,1 hPa 0,0 l/m 1,3 km/h (1 Bft) O 90 1,9 C 2,1 C 0,0 km/h (0 Bft)
25.05.2013 23:45 2,5 C 96 % 1014,1 hPa 0,0 l/m 0,8 km/h (0 Bft) SO 135 1,9 C 2,2 C 0,0 km/h (0 Bft)
25.05.2013 23:50 2,5 C 96 % 1014,1 hPa 0,0 l/m 0,6 km/h (0 Bft) SO 135 1,9 C 2,2 C 0,0 km/h (0 Bft)
25.05.2013 23:55 2,6 C 96 % 1014,1 hPa 0,0 l/m 0,8 km/h (0 Bft) N-NW 337 2,0 C 2,2 C 2,9 km/h (1 Bft)
_ Min-Zeit 03:05 09:50 05:40 - 17:35 - - 03:05 03:05 23:50
Minimum _ 0,3 C 78 % 1010,9 hPa - 0,0 km/h (0 Bft) - - 0,0 C -0,6 C 0,0 km/h (0 Bft)
_ Max-Zeit 09:40 06:55 22:40 23:05 20:55 - - 12:40 13:15 20:50
Maximum _ 7,4 C 98 % 1014,2 hPa 0,7 l/m 6,9 km/h
S (2 Bft)
- - 5,4 C 10,5 C 11,7 km/h
S (2 Bft)
Durchschnitt _ 3,9 C 92 % 1012,7 hPa #3,4 l/m 1,2 km/h (1 Bft) S - 2,6 C 4,4 C 1,6 km/h (1 Bft)